Regional Weather Roundup
Issued by NWS

Home | Current Version | Previous Version | Text Only | Print | Product List | Glossary On
Versions: 1 2 3 4 5 6 7 8 9 10 11 12 13 14 15 16 17 18 19 20 21 22 23 24 25 26 27 28 29 30 31 32 33 34 35 36 37 38 39 40 41 42 43 44 45 46 47 48 49 50
000
ASUS44 KMEG 170810
RWRTN
TENNESSEE HOURLY STATE WEATHER ROUNDUP
NATIONAL WEATHER SERVICE MEMPHIS TN
300 AM CDT TUE OCT 17 2017

TNZ002-004-019-021-049-052-054-088>092-170900-
WEST TENNESSEE

CITY           SKY/WX    TMP DP  RH WIND       PRES   REMARKS
MEMPHIS INTL   CLEAR     51  41  68 NE6       30.30S
NWS MEMPHIS      N/A     49 N/A N/A MISG        N/A
JACKSON        CLEAR     38  38 100 CALM      30.31S
COVINGTON      CLEAR     39  37  93 CALM      30.32R
UNION CITY     CLEAR     36  36 100 CALM      30.32S FOG
BOLIVAR        CLEAR     39  39 100 CALM      30.30S
PARIS          CLEAR     39  39 100 CALM      30.31S
HUNTINGDON     CLEAR     39  39 100 CALM      30.31S
LEXINGTON      CLEAR     39  39 100 CALM      30.30F
SELMER         CLEAR     43  41  93 NE3       30.29F
SAVANNAH       CLEAR     39  39 100 CALM      30.29S
$$

TNZ008-025-027-028-033-062-065-066-170900-
NORTH MIDDLE TENNESSEE

CITY           SKY/WX    TMP DP  RH WIND       PRES   REMARKS
NASHVILLE      CLEAR     46  43  89 NW3       30.32S
PORTLAND       CLEAR     41  41 100 CALM      30.31S
CLARKSVILLE    CLEAR     42  39  89 CALM      30.32F
SMYRNA         CLEAR     42  40  92 CALM      30.32S
COOKEVILLE     CLEAR     39  37  93 CALM      30.29S
GALLATIN       CLEAR     43  41  93 CALM      30.34S
CROSSVILLE     CLEAR     41  38  89 CALM      30.29F
$$

TNZ061-075-076-078-094-096-097-170900-
SOUTH MIDDLE TENNESSEE

CITY           SKY/WX    TMP DP  RH WIND       PRES   REMARKS
FAYETTEVILLE   CLEAR     46  43  87 NE6       30.27R
TULLAHOMA        N/A     41  37  87 CALM      30.29S
WINCHESTER     CLEAR     41  39  93 CALM        N/A
COLUMBIA       CLEAR     41  41 100 CALM      30.28F
SHELBYVILLE    CLEAR     41  39  93 MISG      30.29S
$$

TNZ017-018-042-046-047-170900-
NORTHEAST TENNESSEE

CITY           SKY/WX    TMP DP  RH WIND       PRES   REMARKS
TRI CITIES     CLEAR     38  38 100 CALM      30.30F
ELIZABETHTON   CLEAR     37  37 100 CALM      30.31S
$$

TNZ012-013-036-069-073-074-170900-
CENTRAL EAST TENNESSEE

CITY           SKY/WX    TMP DP  RH WIND       PRES   REMARKS
KNOXVILLE      CLEAR     47  43  86 N6        30.28F
OAK RIDGE      CLEAR     45  44  97 CALM      30.32S
DOWNTOWN KNOXV CLEAR     45  45 100 CALM      30.31S FOG
GATLINBURG     CLEAR     41  41 100 CALM      30.30S
MORRISTOWN     CLEAR     43  39  87 CALM      30.30S
JACKSBORO      PTCLDY    39  39 100 CALM      30.35S
$$

TNZ083-085-099-170900-
SOUTHEAST TENNESSEE

CITY           SKY/WX    TMP DP  RH WIND       PRES   REMARKS
CHATTANOOGA    CLEAR     51  41  68 NE7       30.28S
DAYTON         SUNNY     43  43 100 CALM      30.28S
$$

SKY/WX REPORTED AS FAIR MEANS FEW OR NO CLOUDS BELOW
12 THOUSAND FEET.





USA.gov is the U.S. government's official web portal to all federal, state and local government web resources and services.